Regional Weather Roundup
Issued by NWS

Home | Current Version | Previous Version | Text Only | Print | Product List | Glossary On
Versions: 1 2 3 4 5 6 7 8 9 10 11 12 13 14 15 16 17 18 19 20 21 22 23 24 25 26 27 28 29 30 31 32 33 34 35 36 37 38 39 40 41 42 43 44 45 46 47 48 49 50
271
ASUS43 KDTX 240110
RWRMI
MICHIGAN HOURLY REGIONAL WEATHER ROUNDUP
NATIONAL WEATHER SERVICE DETROIT/PONTIAC MI
ISSUED BY NATIONAL WEATHER SERVICE GRAND RAPIDS MI
900 PM EDT WED AUG 23 2017

NOTE: "FAIR" INDICATES FEW OR NO CLOUDS BELOW 12,000 FEET WITH NO
SIGNIFICANT WEATHER AND/OR OBSTRUCTION TO VISIBILITY.

MIZ047>049-052>055-059>063-066>070-074>076-081>083-240200-
SOUTHEAST LOWER MICHIGAN

CITY           SKY/WX    TMP DP  RH WIND       PRES   REMARKS
ADRIAN         CLEAR     64  52  64 NW5       29.99R
ALMA           CLEAR     60  47  60 NW6       30.00R
ANN ARBOR      CLOUDY    67  53  61 W5        29.97R
BAD AXE        CLEAR     58  53  84 CALM      29.99R
DETROIT CITY   MOCLDY    70  50  49 NW5       29.96R
DETROIT        MOCLDY    69  52  54 N7        29.96R
FLINT          PTCLDY    65  50  58 NW9       29.98R
GROSSE ILE     CLOUDY    71  51  49 N5        29.95R
HILLSDALE      MOCLDY    61  50  67 W3        30.00R
HOWELL         CLOUDY    65  53  64 NW3       29.98S

CITY           SKY/WX    TMP DP  RH WIND       PRES   REMARKS
JACKSON        CLOUDY    64  53  67 W5        30.00R
LANSING        CLEAR     63  48  58 NW6       30.00R
MASON          MOCLDY    67  49  52 NW9       29.99R
MONROE         PTCLDY    62  55  77 CALM      29.95S
MT. CLEMENS    MOCLDY    65  55  70 N6        29.95R
PONTIAC        PTCLDY    65  53  65 NW5       29.96R
PORT HOPE        N/A     63  54  72 NE3       29.97R
PORT HURON     MOCLDY    59  55  88 CALM      29.96S
TRI CITIES     CLEAR     60  50  69 N6        29.99R
YPSILANTI      CLOUDY    67  54  63 N5        29.97R
$$
MIZ043>046-050>051-056>058-064>065-071>073-077>080-240200-
SOUTHWEST LOWER MICHIGAN

CITY           SKY/WX    TMP DP  RH WIND       PRES   REMARKS
BATTLE CREEK   CLEAR     62  52  69 NW6       30.01R
BENTON HARBOR  CLEAR     60  53  77 CALM      30.02R
BIG RAPIDS     CLEAR     57  46  66 CALM      30.01R
COLDWATER      CLEAR     60  51  71 W3        30.01R
HOLLAND        CLEAR     63  50  62 N3        30.02R
GRAND RAPIDS   PTCLDY    63  50  62 N6        30.01R
KALAMAZOO      CLEAR     62  48  60 NW6       30.02R
MARSHALL       CLEAR     61  50  67 W5        30.00R
MOUNT PLEASANT CLEAR     62  48  59 CALM      30.00R HAZE
MUSKEGON       PTCLDY    64  49  57 N5        30.01S
STURGIS        CLEAR     60  50  70 CALM      30.01S
$$
MIZ016>042-240200-
NORTHERN LOWER MICHIGAN

CITY           SKY/WX    TMP DP  RH WIND       PRES   REMARKS
ALPENA         PTCLDY    58  51  78 NW7       30.00R
BEAVER ISLAND  CLEAR     56  44  64 N8G20     30.03R
BELLAIRE       CLEAR     52  49  89 CALM      30.02R
CADILLAC       CLEAR     57  48  73 CALM      30.02S
CHARLEVOIX     CLEAR     59  47  63 N9G16     30.05R
GAYLORD        CLEAR     55  46  71 CALM      30.02R
HOUGHTON LAKE  CLEAR     56  46  69 NW7       30.02R
MANISTEE       CLEAR     55  52  89 CALM      30.01S
OSCODA         CLEAR     58  48  69 W9        29.98R
PELLSTON       CLEAR     54  47  77 NW7       30.02R
TRAVERSE CITY  PTCLDY    61  50  67 NE6       30.00S
LUDINGTON      CLEAR     56  52  84 CALM      30.01S
$$
MIZ007>008-015-240200-
EASTERN UPPER MICHIGAN

CITY           SKY/WX    TMP DP  RH WIND       PRES   REMARKS
KINROSS        CLOUDY    54  47  77 NW9       30.01R
MACKINAC ISLAN CLEAR     55  46  73 NW10G16   30.01R
NEWBERRY       PTCLDY    48  47  94 NW5       30.02S
S. S. MARIE    CLOUDY    56  49  77 NW6       29.99R
$$
MIZ004>006-011>014-085-240200-
CENTRAL UPPER MICHIGAN

CITY           SKY/WX    TMP DP  RH WIND       PRES   REMARKS
MANISTIQUE     CLEAR     49  44  81 NW7       30.04R
ESCANABA       PTCLDY    56  44  64 N5        30.05R
MENOMINEE      CLEAR     62  45  53 N6        30.03R
SAWYER-GWINN   CLEAR     54  43  66 NW10      30.07R
$$
MIZ001>003-009>011-084-240200-
WESTERN UPPER MICHIGAN

CITY           SKY/WX    TMP DP  RH WIND       PRES   REMARKS
IRON MOUNTAIN  PTCLDY    56  36  47 N7        30.05R
HOUGHTON       MOCLDY    53  44  71 CALM      30.06R
COPPER HARBOR    N/A     54  44  69 W5        30.05R
IRONWOOD       CLEAR     51  47  86 CALM      30.09R
$$

ABBREVIATIONS USED IN REMARKS
   TC - TEMPERATURE IN CELSIUS
  WCI - WIND CHILL INDEX
   HX - HEAT INDEX
  VSB - VISIBILITY





USA.gov is the U.S. government's official web portal to all federal, state and local government web resources and services.